Year,Month,Day,Hour,Minute,Value (Times are PST for insolation in W/m^2)
2008,05,01,00,00,0.00
2008,05,01,00,01,0.00
2008,05,01,00,02,0.00
2008,05,01,00,03,0.00
2008,05,01,00,04,0.00
2008,05,01,00,05,0.00
2008,05,01,00,06,0.00
2008,05,01,00,07,0.00
2008,05,01,00,08,0.00
2008,05,01,00,09,0.00
2008,05,01,00,10,0.00
2008,05,01,00,11,0.00
2008,05,01,00,12,0.00
2008,05,01,00,13,0.00
2008,05,01,00,14,0.00
2008,05,01,00,15,0.00
2008,05,01,00,16,0.00
2008,05,01,00,17,0.00
2008,05,01,00,18,0.00
2008,05,01,00,19,0.00
2008,05,01,00,20,0.00
2008,05,01,00,21,0.00
2008,05,01,00,22,0.00
2008,05,01,00,23,0.00
2008,05,01,00,24,0.00
2008,05,01,00,25,0.00
2008,05,01,00,26,0.00
2008,05,01,00,27,0.00
2008,05,01,00,28,0.00
2008,05,01,00,29,0.00
2008,05,01,00,30,0.00
2008,05,01,00,31,0.00
2008,05,01,00,32,0.00
2008,05,01,00,33,0.00
2008,05,01,00,34,0.00
2008,05,01,00,35,0.00
2008,05,01,00,36,0.00
2008,05,01,00,37,0.00
2008,05,01,00,38,0.00
2008,05,01,00,39,0.00
2008,05,01,00,40,0.00
2008,05,01,00,41,0.00
2008,05,01,00,42,0.00
2008,05,01,00,43,0.00
2008,05,01,00,44,0.00
2008,05,01,00,45,0.00
2008,05,01,00,46,0.00
2008,05,01,00,47,0.00
2008,05,01,00,48,0.00
2008,05,01,00,49,0.00
2008,05,01,00,50,0.00
2008,05,01,00,51,0.00
2008,05,01,00,52,0.00
2008,05,01,00,53,0.00
2008,05,01,00,54,0.00
2008,05,01,00,55,0.00
2008,05,01,00,56,0.00
2008,05,01,00,57,0.00
2008,05,01,00,58,0.00
2008,05,01,00,59,0.00
2008,05,01,01,00,0.00
2008,05,01,01,01,0.00
2008,05,01,01,02,0.00
2008,05,01,01,03,0.00
2008,05,01,01,04,0.00
2008,05,01,01,05,0.00
2008,05,01,01,06,0.00
2008,05,01,01,07,0.00
2008,05,01,01,08,0.00
2008,05,01,01,09,0.00
2008,05,01,01,10,0.00
2008,05,01,01,11,0.00
2008,05,01,01,12,0.00
2008,05,01,01,13,0.00
2008,05,01,01,14,0.00
2008,05,01,01,15,0.00
2008,05,01,01,16,0.00
2008,05,01,01,17,0.00
2008,05,01,01,18,0.00
2008,05,01,01,19,0.00
2008,05,01,01,20,0.00
2008,05,01,01,21,0.00
2008,05,01,01,22,0.00
2008,05,01,01,23,0.00
2008,05,01,01,24,0.00
2008,05,01,01,25,0.00
2008,05,01,01,26,0.00
2008,05,01,01,27,0.00
2008,05,01,01,28,0.00
2008,05,01,01,29,0.00
2008,05,01,01,30,0.00
2008,05,01,01,31,0.00
2008,05,01,01,32,0.00
2008,05,01,01,33,0.00
2008,05,01,01,34,0.00
2008,05,01,01,35,0.00
2008,05,01,01,36,0.00
2008,05,01,01,37,0.00
2008,05,01,01,38,0.00
2008,05,01,01,39,0.00
2008,05,01,01,40,0.00
2008,05,01,01,41,0.00
2008,05,01,01,42,0.00
2008,05,01,01,43,0.00
2008,05,01,01,44,0.00
2008,05,01,01,45,0.00
2008,05,01,01,46,0.00
2008,05,01,01,47,0.00
2008,05,01,01,48,0.00
2008,05,01,01,49,0.00
2008,05,01,01,50,0.00
2008,05,01,01,51,0.00
2008,05,01,01,52,0.00
2008,05,01,01,53,0.00
2008,05,01,01,54,0.00
2008,05,01,01,55,0.00
2008,05,01,01,56,0.00
2008,05,01,01,57,0.00
2008,05,01,01,58,0.00
2008,05,01,01,59,0.00
2008,05,01,02,00,0.00
2008,05,01,02,01,0.00
2008,05,01,02,02,0.00
2008,05,01,02,03,0.00
2008,05,01,02,04,0.00
2008,05,01,02,05,0.00
2008,05,01,02,06,0.00
2008,05,01,02,07,0.00
2008,05,01,02,08,0.00
2008,05,01,02,09,0.00
2008,05,01,02,10,0.00
2008,05,01,02,11,0.00
2008,05,01,02,12,0.00
2008,05,01,02,13,0.00
2008,05,01,02,14,0.00
2008,05,01,02,15,0.00
2008,05,01,02,16,0.00
2008,05,01,02,17,0.00
2008,05,01,02,18,0.00
2008,05,01,02,19,0.00
2008,05,01,02,20,0.00
2008,05,01,02,21,0.00
2008,05,01,02,22,0.00
2008,05,01,02,23,0.00
2008,05,01,02,24,0.00
2008,05,01,02,25,0.00
2008,05,01,02,26,0.00
2008,05,01,02,27,0.00
2008,05,01,02,28,0.00
2008,05,01,02,29,0.00
2008,05,01,02,30,0.00
2008,05,01,02,31,0.00
2008,05,01,02,32,0.00
2008,05,01,02,33,0.00
2008,05,01,02,34,0.00
2008,05,01,02,35,0.00
2008,05,01,02,36,0.00
2008,05,01,02,37,0.00
2008,05,01,02,38,0.00
2008,05,01,02,39,0.00
2008,05,01,02,40,0.00
2008,05,01,02,41,0.00
2008,05,01,02,42,0.00
2008,05,01,02,43,0.00
2008,05,01,02,44,0.00
2008,05,01,02,45,0.00
2008,05,01,02,46,0.00
2008,05,01,02,47,0.00
2008,05,01,02,48,0.00
2008,05,01,02,49,0.00
2008,05,01,02,50,0.00
2008,05,01,02,51,0.00
2008,05,01,02,52,0.00
2008,05,01,02,53,0.00
2008,05,01,02,54,0.00
2008,05,01,02,55,0.00
2008,05,01,02,56,0.00
2008,05,01,02,57,0.00
2008,05,01,02,58,0.00
2008,05,01,02,59,0.00
2008,05,01,03,00,0.00
2008,05,01,03,01,0.00
2008,05,01,03,02,0.00
2008,05,01,03,03,0.00
2008,05,01,03,04,0.00
2008,05,01,03,05,0.00
2008,05,01,03,06,0.00
2008,05,01,03,07,0.00
2008,05,01,03,08,0.00
2008,05,01,03,09,0.00
2008,05,01,03,10,0.00
2008,05,01,03,11,0.00
2008,05,01,03,12,0.00
2008,05,01,03,13,0.00
2008,05,01,03,14,0.00
2008,05,01,03,15,0.00
2008,05,01,03,16,0.00
2008,05,01,03,17,0.00
2008,05,01,03,18,0.00
2008,05,01,03,19,0.00
2008,05,01,03,20,0.00
2008,05,01,03,21,0.00
2008,05,01,03,22,0.00
2008,05,01,03,23,0.00
2008,05,01,03,24,0.00
2008,05,01,03,25,0.00
2008,05,01,03,26,0.00
2008,05,01,03,27,0.00
2008,05,01,03,28,0.00
2008,05,01,03,29,0.00
2008,05,01,03,30,0.00
2008,05,01,03,31,0.00
2008,05,01,03,32,0.00
2008,05,01,03,33,0.00
2008,05,01,03,34,0.00
2008,05,01,03,35,0.00
2008,05,01,03,36,0.00
2008,05,01,03,37,0.00
2008,05,01,03,38,0.00
2008,05,01,03,39,0.00
2008,05,01,03,40,0.00
2008,05,01,03,41,0.00
2008,05,01,03,42,0.00
2008,05,01,03,43,0.00
2008,05,01,03,44,0.00
2008,05,01,03,45,0.00
2008,05,01,03,46,0.00
2008,05,01,03,47,0.00
2008,05,01,03,48,0.00
2008,05,01,03,49,0.00
2008,05,01,03,50,0.00
2008,05,01,03,51,0.00
2008,05,01,03,52,0.00
2008,05,01,03,53,0.00
2008,05,01,03,54,0.00
2008,05,01,03,55,0.00
2008,05,01,03,56,0.00
2008,05,01,03,57,0.00
2008,05,01,03,58,0.00
2008,05,01,03,59,0.00
2008,05,01,04,00,0.00
2008,05,01,04,01,0.00
2008,05,01,04,02,0.00
2008,05,01,04,03,0.00
2008,05,01,04,04,0.00
2008,05,01,04,05,0.00
2008,05,01,04,06,0.00
2008,05,01,04,07,0.00
2008,05,01,04,08,0.00
2008,05,01,04,09,0.00
2008,05,01,04,10,0.00
2008,05,01,04,11,0.00
2008,05,01,04,12,0.00
2008,05,01,04,13,0.00
2008,05,01,04,14,0.00
2008,05,01,04,15,0.00
2008,05,01,04,16,0.00
2008,05,01,04,17,0.00
2008,05,01,04,18,0.00
2008,05,01,04,19,0.00
2008,05,01,04,20,0.00
2008,05,01,04,21,0.00
2008,05,01,04,22,0.00
2008,05,01,04,23,0.00
2008,05,01,04,24,0.00
2008,05,01,04,25,0.00
2008,05,01,04,26,0.00
2008,05,01,04,27,0.00
2008,05,01,04,28,0.00
2008,05,01,04,29,0.00
2008,05,01,04,30,0.00
2008,05,01,04,31,0.00
2008,05,01,04,32,0.00
2008,05,01,04,33,0.00
2008,05,01,04,34,0.00
2008,05,01,04,35,0.00
2008,05,01,04,36,0.00
2008,05,01,04,37,0.00
2008,05,01,04,38,0.00
2008,05,01,04,39,0.00
2008,05,01,04,40,0.00
2008,05,01,04,41,0.00
2008,05,01,04,42,0.00
2008,05,01,04,43,0.00
2008,05,01,04,44,0.00
2008,05,01,04,45,0.00
2008,05,01,04,46,0.00
2008,05,01,04,47,0.00
2008,05,01,04,48,0.00
2008,05,01,04,49,0.00
2008,05,01,04,50,0.00
2008,05,01,04,51,0.00
2008,05,01,04,52,0.00
2008,05,01,04,53,0.00
2008,05,01,04,54,0.00
2008,05,01,04,55,0.00
2008,05,01,04,56,0.00
2008,05,01,04,57,0.00
2008,05,01,04,58,0.00
2008,05,01,04,59,0.00
2008,05,01,05,00,0.00
2008,05,01,05,01,0.00
2008,05,01,05,02,0.00
2008,05,01,05,03,0.00
2008,05,01,05,04,0.00
2008,05,01,05,05,0.00
2008,05,01,05,06,0.00
2008,05,01,05,07,0.00
2008,05,01,05,08,0.00
2008,05,01,05,09,0.00
2008,05,01,05,10,0.00
2008,05,01,05,11,0.00
2008,05,01,05,12,0.00
2008,05,01,05,13,0.00
2008,05,01,05,14,0.00
2008,05,01,05,15,0.00
2008,05,01,05,16,0.00
2008,05,01,05,17,0.00
2008,05,01,05,18,0.00
2008,05,01,05,19,0.00
2008,05,01,05,20,0.00
2008,05,01,05,21,0.00
2008,05,01,05,22,0.00
2008,05,01,05,23,0.00
2008,05,01,05,24,0.00
2008,05,01,05,25,0.00
2008,05,01,05,26,0.00
2008,05,01,05,27,0.00
2008,05,01,05,28,0.00
2008,05,01,05,29,0.00
2008,05,01,05,30,0.00
2008,05,01,05,31,0.00
2008,05,01,05,32,0.00
2008,05,01,05,33,0.00
2008,05,01,05,34,0.00
2008,05,01,05,35,0.00
2008,05,01,05,36,0.00
2008,05,01,05,37,0.00
2008,05,01,05,38,0.00
2008,05,01,05,39,0.00
2008,05,01,05,40,0.00
2008,05,01,05,41,0.00
2008,05,01,05,42,0.00
2008,05,01,05,43,0.00
2008,05,01,05,44,0.00
2008,05,01,05,45,0.00
2008,05,01,05,46,0.00
2008,05,01,05,47,0.00
2008,05,01,05,48,0.00
2008,05,01,05,49,0.00
2008,05,01,05,50,0.00
2008,05,01,05,51,0.00
2008,05,01,05,52,0.00
2008,05,01,05,53,0.00
2008,05,01,05,54,0.00
2008,05,01,05,55,0.00
2008,05,01,05,56,2.00
2008,05,01,05,57,5.00
2008,05,01,05,58,5.00
2008,05,01,05,59,5.00
2008,05,01,06,00,5.00
2008,05,01,06,01,6.90
2008,05,01,06,02,7.00
2008,05,01,06,03,7.00
2008,05,01,06,04,7.00
2008,05,01,06,05,7.00
2008,05,01,06,06,7.70
2008,05,01,06,07,9.00
2008,05,01,06,08,9.00
2008,05,01,06,09,10.30
2008,05,01,06,10,11.00
2008,05,01,06,11,11.00
2008,05,01,06,12,11.00
2008,05,01,06,13,12.00
2008,05,01,06,14,12.20
2008,05,01,06,15,14.40
2008,05,01,06,16,16.00
2008,05,01,06,17,16.70
2008,05,01,06,18,18.00
2008,05,01,06,19,18.60
2008,05,01,06,20,20.30
2008,05,01,06,21,21.00
2008,05,01,06,22,22.80
2008,05,01,06,23,24.90
2008,05,01,06,24,25.00
2008,05,01,06,25,26.00
2008,05,01,06,26,26.40
2008,05,01,06,27,28.00
2008,05,01,06,28,28.80
2008,05,01,06,29,30.90
2008,05,01,06,30,32.60
2008,05,01,06,31,35.60
2008,05,01,06,32,39.30
2008,05,01,06,33,40.00
2008,05,01,06,34,39.20
2008,05,01,06,35,39.00
2008,05,01,06,36,39.00
2008,05,01,06,37,39.20
2008,05,01,06,38,40.50
2008,05,01,06,39,42.70
2008,05,01,06,40,44.90
2008,05,01,06,41,47.80
2008,05,01,06,42,51.60
2008,05,01,06,43,55.30
2008,05,01,06,44,56.00
2008,05,01,06,45,57.90
2008,05,01,06,46,58.00
2008,05,01,06,47,60.20
2008,05,01,06,48,62.20
2008,05,01,06,49,63.60
2008,05,01,06,50,67.50
2008,05,01,06,51,77.60
2008,05,01,06,52,93.50
2008,05,01,06,53,108.10
2008,05,01,06,54,103.20
2008,05,01,06,55,103.30
2008,05,01,06,56,114.20
2008,05,01,06,57,123.00
2008,05,01,06,58,123.50
2008,05,01,06,59,128.80
2008,05,01,07,00,111.10
2008,05,01,07,01,100.10
2008,05,01,07,02,92.10
2008,05,01,07,03,92.20
2008,05,01,07,04,110.60
2008,05,01,07,05,114.20
2008,05,01,07,06,113.90
2008,05,01,07,07,94.20
2008,05,01,07,08,95.00
2008,05,01,07,09,107.40
2008,05,01,07,10,113.00
2008,05,01,07,11,106.60
2008,05,01,07,12,89.20
2008,05,01,07,13,89.40
2008,05,01,07,14,101.60
2008,05,01,07,15,98.60
2008,05,01,07,16,103.70
2008,05,01,07,17,112.30
2008,05,01,07,18,151.00
2008,05,01,07,19,114.00
2008,05,01,07,20,153.20
2008,05,01,07,21,120.50
2008,05,01,07,22,173.40
2008,05,01,07,23,154.70
2008,05,01,07,24,122.00
2008,05,01,07,25,109.50
2008,05,01,07,26,114.10
2008,05,01,07,27,119.50
2008,05,01,07,28,127.10
2008,05,01,07,29,164.70
2008,05,01,07,30,123.00
2008,05,01,07,31,117.30
2008,05,01,07,32,106.70
2008,05,01,07,33,107.00
2008,05,01,07,34,114.10
2008,05,01,07,35,116.00
2008,05,01,07,36,116.00
2008,05,01,07,37,116.00
2008,05,01,07,38,117.50
2008,05,01,07,39,124.20
2008,05,01,07,40,126.60
2008,05,01,07,41,202.00
2008,05,01,07,42,159.20
2008,05,01,07,43,176.10
2008,05,01,07,44,142.50
2008,05,01,07,45,137.40
2008,05,01,07,46,131.70
2008,05,01,07,47,125.10
2008,05,01,07,48,123.00
2008,05,01,07,49,120.70
2008,05,01,07,50,118.60
2008,05,01,07,51,119.90
2008,05,01,07,52,118.00
2008,05,01,07,53,118.20
2008,05,01,07,54,120.70
2008,05,01,07,55,126.20
2008,05,01,07,56,134.00
2008,05,01,07,57,129.80
2008,05,01,07,58,127.90
2008,05,01,07,59,156.10
2008,05,01,08,00,138.70
2008,05,01,08,01,130.00
2008,05,01,08,02,135.00
2008,05,01,08,03,141.00
2008,05,01,08,04,148.60
2008,05,01,08,05,155.50
2008,05,01,08,06,143.10
2008,05,01,08,07,139.60
2008,05,01,08,08,135.70
2008,05,01,08,09,131.90
2008,05,01,08,10,128.30
2008,05,01,08,11,125.50
2008,05,01,08,12,121.50
2008,05,01,08,13,120.10
2008,05,01,08,14,120.00
2008,05,01,08,15,123.10
2008,05,01,08,16,125.50
2008,05,01,08,17,129.20
2008,05,01,08,18,133.20
2008,05,01,08,19,135.00
2008,05,01,08,20,134.40
2008,05,01,08,21,132.70
2008,05,01,08,22,130.50
2008,05,01,08,23,131.80
2008,05,01,08,24,133.90
2008,05,01,08,25,137.00
2008,05,01,08,26,142.70
2008,05,01,08,27,150.10
2008,05,01,08,28,156.10
2008,05,01,08,29,160.80
2008,05,01,08,30,162.50
2008,05,01,08,31,164.20
2008,05,01,08,32,166.40
2008,05,01,08,33,167.00
2008,05,01,08,34,167.00
2008,05,01,08,35,168.90
2008,05,01,08,36,171.00
2008,05,01,08,37,172.20
2008,05,01,08,38,174.00
2008,05,01,08,39,173.50
2008,05,01,08,40,172.80
2008,05,01,08,41,175.00
2008,05,01,08,42,177.80
2008,05,01,08,43,183.70
2008,05,01,08,44,189.70
2008,05,01,08,45,194.20
2008,05,01,08,46,193.00
2008,05,01,08,47,186.00
2008,05,01,08,48,177.50
2008,05,01,08,49,167.90
2008,05,01,08,50,162.10
2008,05,01,08,51,160.00
2008,05,01,08,52,160.90
2008,05,01,08,53,162.00
2008,05,01,08,54,160.70
2008,05,01,08,55,160.00
2008,05,01,08,56,161.80
2008,05,01,08,57,164.80
2008,05,01,08,58,166.80
2008,05,01,08,59,170.90
2008,05,01,09,00,172.40
2008,05,01,09,01,174.50
2008,05,01,09,02,176.90
2008,05,01,09,03,179.00
2008,05,01,09,04,179.00
2008,05,01,09,05,177.10
2008,05,01,09,06,174.70
2008,05,01,09,07,171.90
2008,05,01,09,08,169.40
2008,05,01,09,09,167.00
2008,05,01,09,10,167.00
2008,05,01,09,11,167.30
2008,05,01,09,12,169.00
2008,05,01,09,13,168.30
2008,05,01,09,14,166.10
2008,05,01,09,15,162.40
2008,05,01,09,16,157.20
2008,05,01,09,17,153.70
2008,05,01,09,18,154.80
2008,05,01,09,19,157.80
2008,05,01,09,20,160.00
2008,05,01,09,21,162.30
2008,05,01,09,22,165.70
2008,05,01,09,23,170.50
2008,05,01,09,24,175.60
2008,05,01,09,25,180.40
2008,05,01,09,26,187.10
2008,05,01,09,27,194.90
2008,05,01,09,28,208.20
2008,05,01,09,29,219.80
2008,05,01,09,30,231.40
2008,05,01,09,31,236.00
2008,05,01,09,32,229.70
2008,05,01,09,33,223.80
2008,05,01,09,34,218.00
2008,05,01,09,35,219.10
2008,05,01,09,36,223.80
2008,05,01,09,37,232.30
2008,05,01,09,38,245.90
2008,05,01,09,39,264.50
2008,05,01,09,40,285.80
2008,05,01,09,41,302.40
2008,05,01,09,42,299.70
2008,05,01,09,43,293.80
2008,05,01,09,44,292.40
2008,05,01,09,45,296.10
2008,05,01,09,46,304.60
2008,05,01,09,47,323.80
2008,05,01,09,48,351.30
2008,05,01,09,49,357.50
2008,05,01,09,50,340.50
2008,05,01,09,51,387.20
2008,05,01,09,52,410.00
2008,05,01,09,53,418.00
2008,05,01,09,54,418.20
2008,05,01,09,55,422.50
2008,05,01,09,56,424.70
2008,05,01,09,57,408.80
2008,05,01,09,58,382.60
2008,05,01,09,59,389.10
2008,05,01,10,00,420.50
2008,05,01,10,01,390.10
2008,05,01,10,02,412.20
2008,05,01,10,03,401.90
2008,05,01,10,04,421.70
2008,05,01,10,05,399.40
2008,05,01,10,06,407.60
2008,05,01,10,07,427.90
2008,05,01,10,08,461.10
2008,05,01,10,09,496.80
2008,05,01,10,10,579.50
2008,05,01,10,11,615.40
2008,05,01,10,12,616.40
2008,05,01,10,13,618.50
2008,05,01,10,14,613.40
2008,05,01,10,15,605.00
2008,05,01,10,16,590.80
2008,05,01,10,17,617.90
2008,05,01,10,18,602.90
2008,05,01,10,19,559.80
2008,05,01,10,20,552.00
2008,05,01,10,21,565.20
2008,05,01,10,22,555.20
2008,05,01,10,23,604.80
2008,05,01,10,24,640.40
2008,05,01,10,25,648.60
2008,05,01,10,26,622.00
2008,05,01,10,27,546.00
2008,05,01,10,28,600.90
2008,05,01,10,29,643.90
2008,05,01,10,30,662.60
2008,05,01,10,31,631.30
2008,05,01,10,32,590.50
2008,05,01,10,33,622.90
2008,05,01,10,34,593.90
2008,05,01,10,35,571.20
2008,05,01,10,36,554.90
2008,05,01,10,37,566.00
2008,05,01,10,38,572.50
2008,05,01,10,39,612.00
2008,05,01,10,40,618.20
2008,05,01,10,41,644.50
2008,05,01,10,42,668.50
2008,05,01,10,43,695.20
2008,05,01,10,44,683.30
2008,05,01,10,45,688.00
2008,05,01,10,46,709.30
2008,05,01,10,47,715.00
2008,05,01,10,48,740.00
2008,05,01,10,49,752.80
2008,05,01,10,50,770.80
2008,05,01,10,51,793.00
2008,05,01,10,52,790.10
2008,05,01,10,53,782.70
2008,05,01,10,54,781.80
2008,05,01,10,55,781.20
2008,05,01,10,56,781.30
2008,05,01,10,57,785.30
2008,05,01,10,58,775.60
2008,05,01,10,59,782.00
2008,05,01,11,00,779.30
2008,05,01,11,01,767.50
2008,05,01,11,02,765.00
2008,05,01,11,03,776.60
2008,05,01,11,04,806.40
2008,05,01,11,05,814.90
2008,05,01,11,06,814.20
2008,05,01,11,07,809.60
2008,05,01,11,08,793.80
2008,05,01,11,09,781.40
2008,05,01,11,10,793.00
2008,05,01,11,11,796.90
2008,05,01,11,12,786.20
2008,05,01,11,13,757.20
2008,05,01,11,14,719.50
2008,05,01,11,15,740.30
2008,05,01,11,16,755.60
2008,05,01,11,17,780.10
2008,05,01,11,18,788.30
2008,05,01,11,19,766.10
2008,05,01,11,20,746.10
2008,05,01,11,21,761.00
2008,05,01,11,22,778.10
2008,05,01,11,23,804.50
2008,05,01,11,24,849.00
2008,05,01,11,25,850.80
2008,05,01,11,26,858.20
2008,05,01,11,27,864.10
2008,05,01,11,28,869.90
2008,05,01,11,29,826.10
2008,05,01,11,30,861.40
2008,05,01,11,31,860.50
2008,05,01,11,32,849.00
2008,05,01,11,33,843.10
2008,05,01,11,34,821.90
2008,05,01,11,35,803.00
2008,05,01,11,36,648.10
2008,05,01,11,37,364.00
2008,05,01,11,38,364.00
2008,05,01,11,39,325.20
2008,05,01,11,40,304.00
2008,05,01,11,41,304.00
2008,05,01,11,42,727.50
2008,05,01,11,43,703.00
2008,05,01,11,44,669.20
2008,05,01,11,45,348.00
2008,05,01,11,46,348.00
2008,05,01,11,47,348.00
2008,05,01,11,48,535.80
2008,05,01,11,49,736.50
2008,05,01,11,50,698.80
2008,05,01,11,51,684.00
2008,05,01,11,52,684.00
2008,05,01,11,53,703.80
2008,05,01,11,54,712.00
2008,05,01,11,55,742.00
2008,05,01,11,56,742.00
2008,05,01,11,57,765.80
2008,05,01,11,58,811.50
2008,05,01,11,59,813.80
2008,05,01,12,00,845.00
2008,05,01,12,01,850.80
2008,05,01,12,02,856.60
2008,05,01,12,03,831.90
2008,05,01,12,04,828.00
2008,05,01,12,05,828.00
2008,05,01,12,06,804.10
2008,05,01,12,07,613.00
2008,05,01,12,08,613.00
2008,05,01,12,09,517.30
2008,05,01,12,10,367.00
2008,05,01,12,11,367.00
2008,05,01,12,12,367.00
2008,05,01,12,13,361.60
2008,05,01,12,14,360.00
2008,05,01,12,15,360.00
2008,05,01,12,16,858.00
2008,05,01,12,17,850.10
2008,05,01,12,18,864.40
2008,05,01,12,19,837.80
2008,05,01,12,20,806.10
2008,05,01,12,21,776.40
2008,05,01,12,22,723.50
2008,05,01,12,23,696.80
2008,05,01,12,24,694.60
2008,05,01,12,25,693.00
2008,05,01,12,26,693.00
2008,05,01,12,27,751.80
2008,05,01,12,28,733.60
2008,05,01,12,29,708.10
2008,05,01,12,30,682.00
2008,05,01,12,31,651.90
2008,05,01,12,32,622.70
2008,05,01,12,33,644.00
2008,05,01,12,34,663.50
2008,05,01,12,35,631.60
2008,05,01,12,36,637.90
2008,05,01,12,37,684.20
2008,05,01,12,38,732.90
2008,05,01,12,39,694.10
2008,05,01,12,40,690.70
2008,05,01,12,41,680.00
2008,05,01,12,42,725.00
2008,05,01,12,43,728.60
2008,05,01,12,44,737.70
2008,05,01,12,45,735.70
2008,05,01,12,46,746.30
2008,05,01,12,47,802.20
2008,05,01,12,48,809.80
2008,05,01,12,49,780.00
2008,05,01,12,50,754.40
2008,05,01,12,51,745.00
2008,05,01,12,52,760.80
2008,05,01,12,53,773.50
2008,05,01,12,54,797.00
2008,05,01,12,55,806.80
2008,05,01,12,56,795.90
2008,05,01,12,57,791.00
2008,05,01,12,58,780.50
2008,05,01,12,59,745.90
2008,05,01,13,00,784.00
2008,05,01,13,01,829.50
2008,05,01,13,02,822.60
2008,05,01,13,03,829.40
2008,05,01,13,04,823.80
2008,05,01,13,05,814.00
2008,05,01,13,06,812.00
2008,05,01,13,07,803.50
2008,05,01,13,08,779.00
2008,05,01,13,09,782.70
2008,05,01,13,10,782.10
2008,05,01,13,11,793.70
2008,05,01,13,12,797.30
2008,05,01,13,13,818.50
2008,05,01,13,14,821.20
2008,05,01,13,15,800.60
2008,05,01,13,16,793.20
2008,05,01,13,17,797.50
2008,05,01,13,18,808.00
2008,05,01,13,19,809.60
2008,05,01,13,20,827.60
2008,05,01,13,21,834.80
2008,05,01,13,22,823.00
2008,05,01,13,23,799.90
2008,05,01,13,24,709.10
2008,05,01,13,25,673.30
2008,05,01,13,26,705.30
2008,05,01,13,27,726.80
2008,05,01,13,28,761.90
2008,05,01,13,29,787.30
2008,05,01,13,30,776.30
2008,05,01,13,31,784.10
2008,05,01,13,32,815.20
2008,05,01,13,33,807.00
2008,05,01,13,34,845.80
2008,05,01,13,35,813.30
2008,05,01,13,36,774.60
2008,05,01,13,37,828.20
2008,05,01,13,38,845.10
2008,05,01,13,39,858.70
2008,05,01,13,40,846.90
2008,05,01,13,41,785.70
2008,05,01,13,42,765.10
2008,05,01,13,43,766.00
2008,05,01,13,44,329.00
2008,05,01,13,45,380.60
2008,05,01,13,46,769.60
2008,05,01,13,47,771.70
2008,05,01,13,48,765.60
2008,05,01,13,49,775.00
2008,05,01,13,50,775.00
2008,05,01,13,51,775.00
2008,05,01,13,52,775.00
2008,05,01,13,53,775.00
2008,05,01,13,54,805.10
2008,05,01,13,55,789.00
2008,05,01,13,56,783.50
2008,05,01,13,57,780.00
2008,05,01,13,58,780.00
2008,05,01,13,59,594.00
2008,05,01,14,00,253.00
2008,05,01,14,01,253.00
2008,05,01,14,02,641.20
2008,05,01,14,03,805.80
2008,05,01,14,04,803.70
2008,05,01,14,05,813.40
2008,05,01,14,06,817.00
2008,05,01,14,07,805.00
2008,05,01,14,08,805.00
2008,05,01,14,09,810.30
2008,05,01,14,10,824.80
2008,05,01,14,11,826.40
2008,05,01,14,12,827.20
2008,05,01,14,13,824.20
2008,05,01,14,14,817.20
2008,05,01,14,15,781.60
2008,05,01,14,16,777.00
2008,05,01,14,17,777.00
2008,05,01,14,18,770.40
2008,05,01,14,19,656.40
2008,05,01,14,20,610.40
2008,05,01,14,21,586.40
2008,05,01,14,22,620.10
2008,05,01,14,23,692.40
2008,05,01,14,24,748.40
2008,05,01,14,25,768.50
2008,05,01,14,26,804.20
2008,05,01,14,27,827.10
2008,05,01,14,28,794.70
2008,05,01,14,29,794.10
2008,05,01,14,30,814.90
2008,05,01,14,31,805.60
2008,05,01,14,32,810.00
2008,05,01,14,33,833.90
2008,05,01,14,34,858.30
2008,05,01,14,35,861.10
2008,05,01,14,36,845.90
2008,05,01,14,37,838.60
2008,05,01,14,38,824.80
2008,05,01,14,39,814.00
2008,05,01,14,40,783.30
2008,05,01,14,41,779.80
2008,05,01,14,42,778.20
2008,05,01,14,43,772.90
2008,05,01,14,44,772.70
2008,05,01,14,45,780.70
2008,05,01,14,46,758.10
2008,05,01,14,47,720.30
2008,05,01,14,48,778.50
2008,05,01,14,49,764.50
2008,05,01,14,50,717.10
2008,05,01,14,51,735.00
2008,05,01,14,52,719.50
2008,05,01,14,53,630.50
2008,05,01,14,54,652.50
2008,05,01,14,55,593.00
2008,05,01,14,56,574.40
2008,05,01,14,57,579.30
2008,05,01,14,58,601.80
2008,05,01,14,59,613.90
2008,05,01,15,00,599.80
2008,05,01,15,01,547.00
2008,05,01,15,02,550.80
2008,05,01,15,03,561.40
2008,05,01,15,04,581.50
2008,05,01,15,05,569.70
2008,05,01,15,06,555.00
2008,05,01,15,07,555.00
2008,05,01,15,08,685.70
2008,05,01,15,09,728.10
2008,05,01,15,10,717.50
2008,05,01,15,11,703.00
2008,05,01,15,12,707.00
2008,05,01,15,13,668.80
2008,05,01,15,14,704.20
2008,05,01,15,15,680.10
2008,05,01,15,16,654.00
2008,05,01,15,17,569.60
2008,05,01,15,18,403.60
2008,05,01,15,19,376.00
2008,05,01,15,20,413.50
2008,05,01,15,21,392.00
2008,05,01,15,22,356.50
2008,05,01,15,23,367.00
2008,05,01,15,24,357.40
2008,05,01,15,25,427.00
2008,05,01,15,26,496.40
2008,05,01,15,27,701.70
2008,05,01,15,28,754.50
2008,05,01,15,29,766.50
2008,05,01,15,30,771.30
2008,05,01,15,31,770.50
2008,05,01,15,32,780.60
2008,05,01,15,33,779.20
2008,05,01,15,34,766.40
2008,05,01,15,35,765.20
2008,05,01,15,36,749.50
2008,05,01,15,37,736.20
2008,05,01,15,38,725.00
2008,05,01,15,39,706.50
2008,05,01,15,40,689.80
2008,05,01,15,41,676.30
2008,05,01,15,42,665.40
2008,05,01,15,43,651.20
2008,05,01,15,44,635.70
2008,05,01,15,45,631.00
2008,05,01,15,46,635.00
2008,05,01,15,47,635.00
2008,05,01,15,48,639.40
2008,05,01,15,49,627.10
2008,05,01,15,50,588.30
2008,05,01,15,51,580.40
2008,05,01,15,52,568.70
2008,05,01,15,53,539.40
2008,05,01,15,54,585.70
2008,05,01,15,55,582.90
2008,05,01,15,56,575.70
2008,05,01,15,57,584.70
2008,05,01,15,58,558.30
2008,05,01,15,59,622.30
2008,05,01,16,00,628.00
2008,05,01,16,01,601.90
2008,05,01,16,02,585.00
2008,05,01,16,03,585.00
2008,05,01,16,04,597.20
2008,05,01,16,05,625.70
2008,05,01,16,06,648.80
2008,05,01,16,07,636.00
2008,05,01,16,08,653.20
2008,05,01,16,09,662.60
2008,05,01,16,10,666.60
2008,05,01,16,11,682.50
2008,05,01,16,12,681.80
2008,05,01,16,13,673.70
2008,05,01,16,14,671.00
2008,05,01,16,15,669.00
2008,05,01,16,16,670.60
2008,05,01,16,17,666.30
2008,05,01,16,18,673.00
2008,05,01,16,19,670.70
2008,05,01,16,20,665.50
2008,05,01,16,21,662.40
2008,05,01,16,22,657.10
2008,05,01,16,23,646.70
2008,05,01,16,24,638.90
2008,05,01,16,25,601.10
2008,05,01,16,26,585.80
2008,05,01,16,27,588.80
2008,05,01,16,28,580.00
2008,05,01,16,29,585.00
2008,05,01,16,30,587.40
2008,05,01,16,31,573.80
2008,05,01,16,32,570.20
2008,05,01,16,33,578.90
2008,05,01,16,34,581.10
2008,05,01,16,35,578.80
2008,05,01,16,36,533.50
2008,05,01,16,37,442.40
2008,05,01,16,38,372.20
2008,05,01,16,39,350.70
2008,05,01,16,40,386.00
2008,05,01,16,41,367.50
2008,05,01,16,42,390.80
2008,05,01,16,43,413.50
2008,05,01,16,44,487.30
2008,05,01,16,45,502.20
2008,05,01,16,46,526.80
2008,05,01,16,47,542.10
2008,05,01,16,48,537.60
2008,05,01,16,49,503.40
2008,05,01,16,50,425.00
2008,05,01,16,51,373.00
2008,05,01,16,52,383.10
2008,05,01,16,53,391.90
2008,05,01,16,54,412.70
2008,05,01,16,55,383.40
2008,05,01,16,56,403.10
2008,05,01,16,57,424.10
2008,05,01,16,58,395.20
2008,05,01,16,59,445.20
2008,05,01,17,00,473.20
2008,05,01,17,01,407.20
2008,05,01,17,02,445.00
2008,05,01,17,03,371.60
2008,05,01,17,04,445.00
2008,05,01,17,05,437.50
2008,05,01,17,06,387.90
2008,05,01,17,07,352.00
2008,05,01,17,08,352.00